User: anonymous   Login
Location: Unspecified
(0.0000°N, 0.0000°E)
Time: 06:56:58
(UTC+00:00)
Language:

Tiungsat 1 - Orbit

View from above orbital plane
View from above orbital plane
View from above satellite
View from above satellite

Ground track
Ground track

The orbit data is extracted from the following two-line orbital elements,

1 26548U 00057D   17202.74799322 +.00000067 +00000-0 +23661-4 0  9997
2 26548 064.5503 252.6875 0030620 222.0684 137.8074 14.89025569911044
Epoch (UTC): 21 July 2017 17:57:06
Eccentricity: 0.0030620
inclination: 64.5503°
perigee height: 579 km
apogee height: 622 km
right ascension of ascending node: 252.6875°
argument of perigee: 222.0684°
revolutions per day: 14.89025569
mean anomaly at epoch: 137.8074°
orbit number at epoch: 91104

The dashed part of the orbit path shows where the satellite is in the earth's shadow,  

DLR